Location: Newark
(48.1500°N, 2.9667°W)
Time: 07:11:01
(UTC+00:00)

Courier 1B - Pass Details

Date: 24 January 2020
Orbit: 962 x 1209 km, 28.3° (Epoch: 20 February)

Event Time Altitude Azimuth Distance (km) Brightness Sun altitude
Exits shadow 04:21:51 15° 171° (S) 2,721 9.8 -34.5°
Maximum altitude 04:21:57 15° 170° (S) 2,721 9.8 -34.5°
Drops below altitude 10° 04:25:51 10° 139° (SE) 3,101 10.4 -33.8°
Sets 04:30:14 0° 118° (ESE) 4,093 11.5 -33.1°
